Location: Newark
(47.5989°N, 4.6950°E)
Time: 01:01:36
(UTC+00:00)

ISS - Pass Details

Date: 21 November 2019
Orbit: 411 x 421 km, 51.6° (Epoch: 13 December)

Event Time Altitude Azimuth Distance (km) Brightness Sun altitude
Rises 18:11:03 0° 210° (SSW) 2,346 0.6 -21.9°
Reaches altitude 10° 18:13:22 10° 196° (SSW) 1,490 -0.7 -22.3°
Enters shadow 18:14:13 15° 186° (S) 1,224 -1.3 -22.4°
